EW5728 Weather Reports


time (UTC)temp
C
wind
direction
speed
KPH
gust
KPH
rain 1hr
cm
rain 24hr
cm
rain mn
cm
humidity
%
barometer
mb
20260507070501 13 28 12.9 27.4 0.00 0.41 0.25 93 1014.5
20260507070116 13 24 17.7 29.0 0.00 0.41 0.25 93 1014.4
20260507065603 13 1 20.9 29.0 0.03 0.41 0.25 93 1014.3
20260507065100 13 21 19.3 29.0 0.05 0.41 0.25 93 1014.2
20260507064608 13 13 16.1 27.4 0.08 0.41 0.25 94 1014.0
20260507064058 13 354 12.9 29.0 0.13 0.41 0.25 94 1013.8
20260507063559 13 56 19.3 30.6 0.15 0.41 0.25 94 1013.8
20260507063100 14 9 22.5 32.2 0.18 0.41 0.25 93 1014.0
20260507062554 14 4 19.3 30.6 0.18 0.41 0.25 93 1014.2
20260507062055 15 341 19.3 35.4 0.20 0.41 0.25 93 1014.4
20260507061552 15 330 20.9 35.4 0.20 0.41 0.25 92 1014.4
20260507061050 15 345 19.3 27.4 0.20 0.41 0.25 93 1014.4
20260507060552 15 359 17.7 24.1 0.25 0.41 0.25 95 1014.2
20260507060053 15 49 8.0 17.7 0.25 0.41 0.25 94 1013.6
20260507055547 15 354 8.0 19.3 0.23 0.38 0.23 94 1013.9
20260507055047 15 4 9.7 25.7 0.20 0.36 0.20 94 1013.9
20260507054548 15 21 14.5 25.7 0.18 0.33 0.18 92 1014.1
20260507054045 15 8 17.7 25.7 0.13 0.28 0.13 91 1014.9
20260507053543 16 342 17.7 24.1 0.10 0.25 0.10 90 1015.3
20260507053042 15 346 19.3 24.1 0.08 0.23 0.08 91 1015.1
20260507052543 15 351 12.9 25.7 0.08 0.23 0.08 93 1014.7
20260507052041 15 352 17.7 27.4 0.05 0.20 0.05 92 1014.6
20260507051540 16 341 17.7 27.4 0.05 0.20 0.05 92 1014.7
20260507051037 16 63 11.3 29.0 0.05 0.20 0.05 90 1014.6
20260507050540 16 339 25.7 29.0 0.00 0.15 0.00 88 1015.0
20260507050037 17 332 22.5 27.4 0.00 0.15 0.00 87 1015.1
20260507045533 17 329 17.7 22.5 0.00 0.15 0.00 87 1014.7
20260507045033 17 328 14.5 19.3 0.00 0.15 0.00 85 1014.5
20260507044531 17 341 12.9 16.1 0.00 0.15 0.00 84 1014.4
20260507044032 17 326 12.9 14.5 0.00 0.15 0.00 85 1014.3
20260507043532 17 326 11.3 17.7 0.00 0.15 0.00 85 1014.3
20260507043030 17 332 14.5 17.7 0.00 0.15 0.00 85 1014.2
20260507042529 18 323 9.7 20.9 0.00 0.15 0.00 85 1014.2
20260507042129 18 353 14.5 20.9 0.00 0.15 0.00 85 1014.3
20260507041528 18 342 14.5 20.9 0.00 0.15 0.00 87 1014.2
20260507041026 18 329 14.5 20.9 0.00 0.15 0.00 89 1014.1
20260507040524 17 325 12.9 16.1 0.00 0.15 0.00 93 1014.2
20260507040026 18 321 9.7 20.9 0.00 0.15 0.15 93 1014.1
20260507035523 17 316 16.1 20.9 0.00 0.15 0.15 93 1014.2
20260507035023 17 332 6.4 9.7 0.00 0.15 0.15 95 1014.1
20260507034532 17 331 4.8 9.7 0.00 0.15 0.15 94 1014.0
20260507034022 17 321 6.4 12.9 0.00 0.15 0.15 94 1014.0
20260507033526 18 314 9.7 12.9 0.00 0.15 0.15 92 1014.0
20260507033022 18 199 3.2 6.4 0.00 0.15 0.15 90 1013.7
20260507032522 18 209 3.2 11.3 0.00 0.15 0.15 90 1013.6
20260507032021 18 191 4.8 11.3 0.00 0.15 0.15 89 1013.5
20260507031521 18 198 4.8 14.5 0.00 0.15 0.15 89 1013.4
20260507031020 18 189 9.7 14.5 0.00 0.15 0.15 89 1013.6
20260507030520 19 193 6.4 12.9 0.00 0.15 0.15 89 1013.7
20260507030020 19 154 6.4 12.9 0.00 0.15 0.15 89 1013.6
20260507025519 19 172 8.0 14.5 0.00 0.15 0.15 89 1013.6
20260507025019 18 160 4.8 14.5 0.00 0.15 0.15 89 1013.4
20260507024523 18 170 6.4 14.5 0.00 0.15 0.15 90 1013.4
20260507024021 18 180 4.8 9.7 0.00 0.15 0.15 91 1013.4
20260507023519 18 236 3.2 9.7 0.00 0.15 0.15 92 1013.4
20260507023023 18 149 1.6 9.7 0.00 0.15 0.15 92 1013.4
20260507022519 18 161 1.6 4.8 0.00 0.15 0.15 93 1013.6
20260507022023 17 120 1.6 4.8 0.00 0.15 0.15 93 1013.7
20260507021519 17 167 0.0 4.8 0.00 0.15 0.15 93 1013.7
20260507021018 17 147 0.0 4.8 0.00 0.15 0.15 93 1013.5
20260507020521 17 130 0.0 3.2 0.00 0.15 0.15 93 1013.5
20260507020028 17 131 0.0 1.6 0.00 0.15 0.15 93 1013.5
20260507015517 17 131 0.0 0.0 0.00 0.15 0.15 93 1013.6
20260507015017 17 131 0.0 0.0 0.00 0.15 0.15 93 1013.8
20260507014517 17 131 0.0 0.0 0.00 0.15 0.15 93 1014.0
20260507014017 17 131 0.0 0.0 0.00 0.15 0.15 93 1014.3
20260507013516 17 131 0.0 0.0 0.00 0.15 0.15 93 1014.3
20260507013033 17 131 0.0 0.0 0.00 0.15 0.15 93 1014.4
20260507012516 17 131 0.0 0.0 0.00 0.15 0.15 93 1014.3
20260507012016 17 131 0.0 0.0 0.00 0.15 0.15 93 1014.3
20260507011516 17 131 0.0 1.6 0.00 0.15 0.15 93 1014.1
20260507011014 17 131 0.0 1.6 0.00 0.15 0.15 93 1014.0
20260507010515 17 139 0.0 0.0 0.00 0.15 0.15 93 1014.0
20260507010015 17 139 0.0 1.6 0.00 0.15 0.15 92 1014.0
20260507005516 17 164 0.0 0.0 0.00 0.15 0.15 92 1013.6
20260507005014 17 206 0.0 0.0 0.00 0.15 0.15 92 1013.8
20260507004514 17 209 0.0 0.0 0.00 0.15 0.15 91 1013.9
20260507004014 17 209 0.0 0.0 0.00 0.15 0.15 91 1013.9
20260507003515 18 209 0.0 0.0 0.00 0.15 0.15 90 1013.7
20260507003013 18 209 0.0 0.0 0.00 0.15 0.15 90 1013.7
20260507002513 18 209 0.0 0.0 0.00 0.15 0.15 89 1013.7
20260507002013 18 209 0.0 1.6 0.00 0.15 0.15 88 1013.9
20260507001513 18 209 0.0 4.8 0.00 0.15 0.15 87 1013.7
20260507001014 18 193 0.0 4.8 0.00 0.15 0.15 87 1013.7
20260507000512 18 173 0.0 4.8 0.00 0.15 0.15 87 1013.8
20260507000015 19 156 0.0 6.4 0.00 0.15 0.15 87 1013.6
20260506235515 19 189 1.6 9.7 0.00 0.15 0.15 87 1013.5
20260506235011 19 191 3.2 9.7 0.00 0.15 0.15 87 1013.4
20260506234518 18 184 4.8 12.9 0.00 0.15 0.15 87 1013.4
20260506234011 18 171 6.4 11.3 0.00 0.15 0.15 87 1013.1
20260506233511 18 194 4.8 8.0 0.00 0.15 0.15 88 1013.1
20260506233013 18 143 3.2 8.0 0.00 0.15 0.15 89 1013.1
20260506232510 18 198 3.2 9.7 0.00 0.15 0.15 89 1013.2
20260506232010 18 189 4.8 9.7 0.00 0.15 0.15 88 1013.2
20260506231509 19 201 6.4 9.7 0.00 0.15 0.15 87 1013.3
20260506231008 19 174 6.4 9.7 0.00 0.15 0.15 87 1013.1
20260506230508 18 167 4.8 9.7 0.00 0.15 0.15 88 1013.1
20260506230009 18 188 4.8 9.7 0.00 0.15 0.15 89 1013.0
20260506225508 18 167 4.8 8.0 0.00 0.15 0.15 90 1013.0
20260506225008 18 203 4.8 9.7 0.00 0.15 0.15 90 1013.2
20260506224509 18 205 6.4 14.5 0.00 0.15 0.15 90 1013.2
20260506224008 18 206 9.7 14.5 0.00 0.15 0.15 89 1013.1
20260506223507 18 183 6.4 11.3 0.00 0.15 0.15 89 1013.1
20260506223007 18 201 8.0 14.5 0.00 0.15 0.15 89 1013.1
20260506222507 18 202 8.0 19.3 0.00 0.15 0.15 89 1013.2
20260506222007 19 212 11.3 20.9 0.00 0.15 0.15 88 1013.1
20260506221507 18 224 12.9 20.9 0.00 0.15 0.15 88 1013.3
20260506221005 18 217 14.5 19.3 0.00 0.15 0.15 88 1013.3
20260506220505 18 212 14.5 19.3 0.00 0.15 0.15 88 1013.2
20260506220015 18 216 14.5 19.3 0.00 0.15 0.15 88 1013.2
20260506215509 19 210 14.5 22.5 0.00 0.15 0.15 88 1013.1
20260506215006 18 211 14.5 22.5 0.00 0.15 0.15 88 1013.2
20260506214507 18 198 12.9 24.1 0.00 0.15 0.15 88 1013.2
20260506214006 19 203 12.9 24.1 0.00 0.15 0.15 88 1013.2
20260506213504 19 202 16.1 20.9 0.00 0.15 0.15 88 1013.1
20260506213004 19 211 14.5 22.5 0.00 0.15 0.15 87 1013.1
20260506212503 19 210 17.7 24.1 0.00 0.15 0.15 87 1013.0
20260506212004 19 217 17.7 25.7 0.00 0.15 0.15 87 1012.9
20260506211503 19 218 20.9 25.7 0.00 0.15 0.15 87 1012.9
20260506211003 19 214 20.9 25.7 0.00 0.15 0.15 86 1013.0
20260506210503 19 214 19.3 25.7 0.00 0.15 0.15 87 1012.9
20260506210007 19 213 22.5 30.6 0.00 0.15 0.15 86 1012.7
20260506205502 19 207 20.9 32.2 0.00 0.15 0.15 86 1012.6
20260506205001 19 213 24.1 35.4 0.00 0.15 0.15 86 1012.8
20260506204501 18 227 22.5 35.4 0.00 0.15 0.15 86 1012.8
20260506204001 18 210 19.3 29.0 0.00 0.15 0.15 87 1012.7
20260506203501 18 212 17.7 24.1 0.00 0.15 0.15 87 1012.8
20260506203001 18 210 19.3 24.1 0.00 0.15 0.15 87 1012.9
20260506202501 18 204 16.1 22.5 0.00 0.15 0.15 88 1012.9
20260506202001 18 204 17.7 22.5 0.00 0.15 0.15 87 1012.8
20260506201604 18 215 12.9 24.1 0.00 0.15 0.15 88 1012.8
20260506201059 18 162 16.1 25.7 0.00 0.15 0.15 87 1012.7
20260506200559 18 175 14.5 24.1 0.00 0.15 0.15 87 1012.8
20260506200059 18 195 14.5 27.4 0.00 0.15 0.15 87 1012.7
20260506195601 18 207 16.1 27.4 0.00 0.15 0.15 87 1012.9
20260506195058 18 193 16.1 29.0 0.00 0.15 0.15 88 1013.0
20260506194557 18 207 20.9 30.6 0.00 0.15 0.15 87 1013.1
20260506194057 18 179 20.9 30.6 0.00 0.15 0.15 88 1013.1
20260506193555 18 197 20.9 30.6 0.00 0.15 0.15 88 1013.2
20260506193055 18 195 24.1 30.6 0.00 0.15 0.15 88 1013.3
20260506192555 18 208 24.1 33.8 0.00 0.15 0.15 88 1013.3
20260506192056 18 211 25.7 33.8 0.00 0.15 0.15 87 1013.3
20260506191557 18 191 22.5 29.0 0.00 0.15 0.15 88 1013.4
20260506191054 18 204 20.9 27.4 0.00 0.15 0.15 88 1013.4
20260506190553 18 205 22.5 30.6 0.00 0.15 0.15 88 1013.4
20260506190055 18 205 22.5 30.6 0.00 0.15 0.15 88 1013.5
20260506185551 18 204 19.3 32.2 0.00 0.15 0.15 88 1013.5
20260506185051 18 193 22.5 32.2 0.00 0.15 0.15 87 1013.6
20260506184551 18 203 24.1 32.2 0.00 0.15 0.15 87 1013.7
20260506184051 18 208 24.1 38.6 0.00 0.15 0.15 88 1013.7
20260506183550 18 209 27.4 38.6 0.00 0.15 0.15 88 1013.7
20260506183050 18 191 25.7 37.0 0.00 0.15 0.15 88 1013.7
20260506182548 18 207 27.4 37.0 0.00 0.15 0.15 88 1013.9
20260506182048 18 212 29.0 35.4 0.00 0.15 0.15 87 1014.0
20260506181548 18 191 24.1 33.8 0.00 0.15 0.15 88 1013.9
20260506181047 17 204 25.7 37.0 0.00 0.15 0.15 89 1014.0
20260506180547 17 209 24.1 35.4 0.00 0.15 0.15 89 1014.1
20260506180047 17 186 27.4 33.8 0.00 0.15 0.15 88 1014.0
20260506175547 17 206 24.1 37.0 0.00 0.15 0.15 89 1014.1
20260506175046 17 196 24.1 37.0 0.00 0.15 0.15 89 1014.3
20260506174547 17 201 29.0 37.0 0.00 0.15 0.15 88 1014.3
20260506174045 17 200 25.7 37.0 0.00 0.15 0.15 89 1014.4
20260506173547 17 194 29.0 41.8 0.00 0.15 0.15 89 1014.5
20260506173056 17 209 32.2 43.5 0.00 0.15 0.15 88 1014.4
20260506172544 17 202 33.8 43.5 0.00 0.15 0.15 88 1014.4
20260506172044 17 195 32.2 40.2 0.00 0.15 0.15 88 1014.3
20260506171551 17 144 29.0 38.6 0.00 0.15 0.15 88 1014.3
20260506171042 17 184 29.0 38.6 0.00 0.15 0.15 88 1014.2
20260506170542 17 200 29.0 40.2 0.00 0.15 0.15 88 1014.2
20260506170042 17 205 25.7 46.7 0.00 0.15 0.15 89 1014.3
20260506165543 17 208 25.7 46.7 0.00 0.15 0.15 88 1014.2
20260506165041 17 204 32.2 43.5 0.00 0.15 0.15 87 1014.3
20260506164552 17 181 24.1 41.8 0.00 0.15 0.15 88 1014.0
20260506164038 17 185 22.5 38.6 0.00 0.15 0.15 88 1014.1
20260506163538 17 197 19.3 35.4 0.03 0.15 0.15 89 1014.2
20260506163041 17 184 22.5 35.4 0.03 0.15 0.15 89 1014.4
20260506162538 17 165 19.3 41.8 0.03 0.15 0.15 89 1014.3
20260506162038 17 206 24.1 41.8 0.05 0.15 0.15 88 1014.7
20260506161538 17 195 27.4 38.6 0.05 0.15 0.15 87 1014.5
20260506161035 17 158 19.3 30.6 0.08 0.15 0.15 87 1014.5
20260506160535 17 206 17.7 30.6 0.10 0.15 0.15 87 1014.5
20260506160037 17 154 16.1 29.0 0.10 0.15 0.15 88 1014.3
20260506155533 17 164 12.9 24.1 0.13 0.15 0.15 89 1014.3
20260506155032 17 178 9.7 24.1 0.13 0.15 0.15 90 1014.7
20260506154532 17 186 11.3 19.3 0.15 0.15 0.15 90 1015.0
20260506154032 17 183 11.3 20.9 0.13 0.13 0.13 90 1015.1
20260506153532 17 205 12.9 20.9 0.13 0.13 0.13 90 1015.4
20260506153032 17 176 12.9 20.9 0.13 0.13 0.13 89 1015.5
20260506152533 17 167 12.9 22.5 0.13 0.13 0.13 89 1015.5
20260506152030 17 201 16.1 22.5 0.10 0.10 0.10 89 1015.6
20260506151528 17 189 14.5 27.4 0.10 0.10 0.10 88 1015.5
20260506151027 17 205 17.7 29.0 0.08 0.08 0.08 88 1015.8
20260506150526 17 179 17.7 30.6 0.05 0.05 0.05 87 1015.5
20260506150025 17 166 16.1 22.5 0.05 0.05 0.05 86 1015.6
20260506145525 17 153 14.5 25.7 0.03 0.03 0.03 86 1015.5
20260506145024 17 203 16.1 25.7 0.03 0.03 0.03 85 1015.4
20260506144530 17 182 16.1 29.0 0.00 0.00 0.00 85 1015.7
20260506144025 17 165 17.7 29.0 0.00 0.00 0.00 84 1015.6
20260506143523 18 186 14.5 27.4 0.00 0.00 0.00 85 1015.7
20260506143032 18 188 19.3 27.4 0.00 0.00 0.00 84 1015.8
20260506142526 18 200 16.1 24.1 0.00 0.00 0.00 83 1015.6
20260506142022 18 205 16.1 27.4 0.00 0.00 0.00 83 1015.6
20260506141522 18 210 19.3 27.4 0.00 0.00 0.00 81 1015.6
20260506141022 18 183 17.7 27.4 0.00 0.00 0.00 81 1015.7
20260506140522 18 198 16.1 29.0 0.00 0.00 0.00 82 1015.6
20260506140022 18 202 19.3 29.0 0.00 0.00 0.00 82 1015.6
20260506135521 18 190 19.3 30.6 0.00 0.00 0.00 81 1015.6
20260506135021 18 172 20.9 30.6 0.00 0.00 0.00 80 1015.7
20260506134521 18 205 17.7 30.6 0.00 0.00 0.00 81 1015.6
20260506134020 18 193 20.9 35.4 0.00 0.00 0.00 80 1015.5
20260506133520 18 193 19.3 35.4 0.00 0.00 0.00 80 1015.5
20260506133021 18 175 20.9 32.2 0.00 0.00 0.00 80 1015.4
20260506132519 18 199 20.9 32.2 0.00 0.00 0.00 79 1015.4
20260506132019 18 183 16.1 27.4 0.00 0.00 0.00 79 1015.4
20260506131519 18 191 17.7 29.0 0.00 0.00 0.00 78 1015.3
20260506131018 18 176 19.3 29.0 0.00 0.00 0.00 79 1015.4
20260506130521 18 155 19.3 30.6 0.00 0.00 0.00 79 1015.3
20260506130020 18 212 17.7 33.8 0.00 0.00 0.00 79 1015.4
20260506125517 18 169 19.3 33.8 0.00 0.00 0.00 79 1015.5
20260506125020 18 207 22.5 33.8 0.00 0.00 0.00 79 1015.6
20260506124517 18 186 19.3 37.0 0.00 0.00 0.00 78 1015.5
20260506124016 18 207 19.3 37.0 0.00 0.00 0.00 78 1015.5
20260506123516 18 203 24.1 37.0 0.00 0.00 0.00 79 1015.6
20260506123017 18 133 24.1 37.0 0.00 0.00 0.00 78 1015.6
20260506122517 18 158 24.1 37.0 0.00 0.00 0.00 78 1015.7
20260506122114 18 182 24.1 38.6 0.00 0.00 0.00 79 1015.6
20260506121516 18 204 22.5 37.0 0.00 0.00 0.00 78 1015.7
20260506121012 18 169 24.1 35.4 0.00 0.00 0.00 79 1015.7
20260506120512 18 196 22.5 37.0 0.00 0.00 0.00 78 1015.6
20260506120011 18 188 27.4 37.0 0.00 0.00 0.00 78 1015.6
20260506115509 18 208 19.3 35.4 0.00 0.00 0.00 78 1015.6
20260506115009 18 201 17.7 35.4 0.00 0.00 0.00 79 1015.5
20260506114511 18 171 22.5 35.4 0.00 0.00 0.00 79 1015.5
20260506114008 18 176 20.9 35.4 0.00 0.00 0.00 79 1015.5
20260506113508 18 186 20.9 35.4 0.00 0.00 0.00 78 1015.4
20260506113009 18 194 19.3 33.8 0.00 0.00 0.00 79 1015.4
20260506112506 18 191 16.1 33.8 0.00 0.00 0.00 80 1015.3
20260506112006 18 175 14.5 30.6 0.00 0.00 0.00 80 1015.2
20260506111505 18 193 17.7 30.6 0.00 0.00 0.00 80 1015.4
20260506111003 18 198 16.1 29.0 0.00 0.00 0.00 80 1015.3
20260506110502 18 151 14.5 29.0 0.00 0.00 0.00 81 1015.2
20260506110002 18 136 11.3 27.4 0.00 0.00 0.00 81 1015.1
20260506105502 18 196 14.5 27.4 0.00 0.00 0.00 81 1015.2
20260506105002 18 204 14.5 33.8 0.00 0.00 0.00 82 1015.1
20260506104501 18 200 20.9 33.8 0.00 0.00 0.00 82 1015.1
20260506104100 18 161 17.7 27.4 0.00 0.00 0.00 82 1015.1
20260506103559 18 150 14.5 29.0 0.00 0.00 0.00 82 1015.1
20260506103100 18 213 16.1 29.0 0.00 0.00 0.00 82 1015.1
20260506102600 17 176 19.3 29.0 0.00 0.00 0.00 82 1015.1
20260506102059 17 169 16.1 29.0 0.00 0.00 0.00 82 1014.9
20260506101558 17 173 16.1 29.0 0.00 0.00 0.00 82 1015.1
20260506101055 17 165 14.5 25.7 0.00 0.00 0.00 83 1015.0
20260506100556 17 179 16.1 27.4 0.00 0.00 0.00 83 1015.2
20260506100055 17 145 16.1 30.6 0.00 0.00 0.00 83 1015.3
20260506095554 17 176 17.7 32.2 0.00 0.00 0.00 83 1015.3
20260506095054 17 193 16.1 29.0 0.00 0.00 0.00 83 1015.2
20260506094554 18 194 16.1 32.2 0.00 0.00 0.00 83 1015.2
20260506094052 18 200 17.7 33.8 0.00 0.00 0.00 83 1015.2
20260506093551 18 182 20.9 33.8 0.00 0.00 0.00 82 1015.3
20260506093053 18 190 16.1 29.0 0.00 0.00 0.00 82 1015.1
20260506092550 18 167 14.5 29.0 0.00 0.00 0.00 83 1015.1
20260506092051 18 194 19.3 30.6 0.00 0.00 0.00 83 1015.2
20260506091549 18 192 19.3 30.6 0.00 0.00 0.00 82 1015.2
20260506091047 18 202 19.3 30.6 0.00 0.00 0.00 82 1015.1
20260506090548 18 205 16.1 27.4 0.00 0.00 0.00 82 1015.2
20260506090046 18 150 17.7 29.0 0.00 0.00 0.00 82 1015.2
20260506085546 18 188 17.7 32.2 0.00 0.00 0.00 82 1015.2
20260506085045 18 184 20.9 32.2 0.00 0.00 0.00 82 1015.2
20260506084544 18 169 16.1 30.6 0.00 0.00 0.00 82 1015.2
20260506084044 18 151 16.1 29.0 0.00 0.00 0.00 82 1015.1
20260506083543 18 156 14.5 32.2 0.00 0.00 0.00 82 1015.0
20260506083045 18 175 16.1 32.2 0.00 0.00 0.00 81 1014.9
20260506082543 18 193 20.9 32.2 0.00 0.00 0.00 81 1014.8
20260506082040 18 196 16.1 30.6 0.00 0.00 0.00 81 1014.8
20260506081539 18 191 16.1 30.6 0.00 0.00 0.00 81 1014.9
20260506081037 18 150 14.5 30.6 0.00 0.00 0.00 81 1014.9
20260506080540 18 178 14.5 29.0 0.00 0.00 0.00 81 1014.9
20260506073030 18 214 17.7 30.6 0.00 0.00 0.00 81 1015.3
20260506072528 18 161 16.1 30.6 0.00 0.00 0.00 81 1015.4
20260506072028 18 210 19.3 35.4 0.00 0.00 0.00 81 1015.3
20260506071527 18 194 19.3 32.2 0.00 0.00 0.00 81 1015.2
20260506071025 19 209 20.9 32.2 0.00 0.00 0.00 80 1015.3